Lapse_Rate
6.9 7.0 7.2 7.2 7.1 7.0 6.8 6.5 6.4 6.3 6.1 6.0 5.9 5.8 5.7 5.7 5.8 5.7 5.8 5.7 5.4 5.4
7.3 7.4 7.2 7.0 6.9 6.8 6.7 6.5 6.4 6.2 6.1 6.0 6.0 6.0 6.0 6.0 6.0 5.8 5.6 5.3 5.0 4.9
7.2 7.1 7.1 7.1 6.8 6.6 6.5 6.4 6.4 6.2 6.2 6.2 6.1 5.9 5.8 5.6 5.4 5.1 4.8 4.7 4.7 4.8
6.8 6.7 6.8 6.8 6.7 6.7 6.6 6.5 6.4 6.2 6.0 5.8 5.6 5.4 5.2 5.0 4.9 4.9 4.8 4.9 5.0 5.2
6.6 6.8 6.8 6.8 6.9 6.7 6.4 6.2 6.1 6.0 5.9 5.8 5.6 5.5 5.5 5.5 5.5 5.5 5.6 5.7 5.9 6.0
6.5 6.7 6.8 6.9 6.6 6.3 6.3 6.1 5.9 5.9 6.0 6.1 6.1 5.9 5.8 5.7 5.7 5.8 5.9 6.1 6.2 6.2
6.6 6.7 6.8 6.5 6.4 6.2 6.2 6.0 5.9 6.1 6.3 6.4 6.3 6.0 5.9 5.9 6.0 6.0 6.1 6.2 6.1 6.1
6.6 6.8 6.5 6.3 6.3 6.3 6.1 6.1 6.1 6.2 6.2 6.3 6.3 6.2 6.2 6.2 6.2 6.3 6.4 6.4 6.4 6.4
6.8 6.6 6.3 6.3 6.3 6.1 6.2 6.2 6.2 6.2 6.2 6.2 6.2 6.1 6.2 6.2 6.2 6.3 6.4 6.4 6.4 6.4
6.5 6.4 6.4 6.3 6.2 6.1 6.2 6.1 6.2 6.2 6.2 6.2 6.2 6.2 6.2 6.2 6.2 6.2 6.2 6.2 6.2 6.3
6.6 6.5 6.4 6.3 6.2 6.2 6.2 6.1 6.1 6.1 6.1 6.2 6.2 6.3 6.3 6.4 6.4 6.3 6.3 6.3 6.2 6.2
6.6 6.5 6.3 6.3 6.2 6.2 6.2 6.2 6.1 6.2 6.3 6.3 6.3 6.4 6.4 6.4 6.4 6.5 6.5 6.5 6.5 6.5
6.4 6.3 6.2 6.2 6.2 6.2 6.2 6.2 6.4 6.4 6.4 6.4 6.4 6.4 6.4 6.4 6.4 6.4 6.5 6.5 6.6 6.5
6.3 6.2 6.2 6.2 6.2 6.3 6.2 6.3 6.4 6.4 6.4 6.4 6.5 6.5 6.5 6.5 6.5 6.5 6.5 6.5 6.5 6.5
Wind_Speed
6 5 4 5 4 3 3 3 10 10 10 12 12 12 11 6 6 7 6 8 7 7
7 7 6 6 4 4 5 7 9 10 8 10 12 12 10 6 8 8 8 7 9 7
7 7 6 5 5 5 5 7 7 7 8 9 11 11 9 7 8 8 6 6 9 7
7 6 6 6 5 5 7 9 6 6 6 6 7 9 6 6 8 8 7 8 8 11
7 6 6 6 6 8 6 9 7 7 5 5 6 7 7 7 7 8 8 8 8 11
6 6 6 6 5 7 7 6 7 7 6 6 5 5 5 6 7 7 8 8 8 10
5 6 5 5 5 5 7 5 5 5 5 6 5 7 6 7 7 7 8 8 8 9
5 5 6 6 5 6 6 4 5 5 6 7 4 5 5 6 6 6 7 8 8 9
5 5 5 6 6 5 6 4 3 4 5 5 3 11 11 8 3 6 7 7 7 8
5 5 6 6 7 6 6 5 4 3 3 4 3 12 10 10 3 4 4 5 5 6
6 6 6 6 6 6 5 5 4 3 3 4 5 12 9 8 5 3 5 5 5 3
6 6 6 6 6 5 5 4 4 4 4 4 5 11 9 5 2 2 4 3 9 3
6 7 6 6 6 4 4 6 5 6 4 7 4 9 9 7 4 4 5 5 7 16
6 7 6 6 4 5 5 6 5 6 4 4 4 5 8 8 5 4 4 5 5 5
Wind_Direction
85 83 76 74 68 43 54 28 24 25 24 10 2 14 17 19 14 24 16 15 9 10
91 93 90 82 70 56 29 46 33 31 23 11 12 15 8 28 23 18 11 11 17 10
107 98 92 95 79 66 53 46 40 31 25 19 19 18 23 37 28 26 14 12 20 359
109 104 102 99 92 74 64 45 43 30 27 22 19 19 26 40 31 29 23 17 11 13
123 115 107 94 86 84 70 49 45 36 31 25 22 28 39 38 32 28 25 17 13 13
128 115 104 104 98 96 84 56 48 42 31 16 18 39 57 46 34 30 25 16 13 7
129 126 127 122 107 103 104 72 47 40 34 18 25 47 54 49 35 25 22 21 5 1
137 136 135 128 124 114 111 90 73 57 45 25 18 73 54 50 37 28 20 16 14 9
151 153 151 145 140 123 122 106 78 57 54 20 350 58 67 65 31 24 18 8 357 357
156 148 154 150 149 139 135 140 114 62 35 7 354 53 57 61 36 16 360 354 347 358
142 141 142 143 152 136 145 150 149 116 71 42 41 47 46 48 20 12 357 348 342 1
144 142 149 148 148 153 145 147 138 121 87 62 20 38 44 30 12 19 341 327 350 59
143 144 150 150 152 146 150 149 141 123 99 74 34 26 36 38 29 34 22 24 19 20
142 145 149 149 146 141 144 141 136 121 101 73 45 7 38 47 47 44 40 28 16 8